This demonstration page uses our WeatherBlox Daily Observations layout. Learn more.

Left ArrowRight Arrow

Hourly Observations for August 26, 2021

Temp ( °F °C ) Dew Point ( °F °C ) Humidity (%) Winds ( mph kmh ) Pressure ( in mb ) Visibility ( mi km ) Precip ( " mm )
12:56 am 00:56 Clear 74 23.3 70 21.1 88 88 ESE 9 15 30.02 1017 10 16 0.00 0.00
1:56 am 01:56 Mostly Cloudy 74 23.3 70 21.1 88 88 SW 8 13 30.03 1017 10 16 0.00 0.00
2:56 am 02:56 Cloudy 74 23.3 70 21.1 88 88 NNE 3 6 30.01 1016 10 16 0.00 0.00
3:43 am 03:43 Cloudy 73 23 70 21 89 89 NE 6 9 29.92 1013 10 16 0.00 0.00
3:56 am 03:56 Cloudy 73 22.8 70 21.1 90 90 E 6 9 29.95 1014 10 16 0.00 0.00
4:40 am 04:40 Partly Cloudy 72 22 70 21 94 94 E 7 11 29.91 1013 10 16 0.00 0.00
4:56 am 04:56 Clear 71 21.7 69 20.6 94 94 E 7 11 29.94 1014 10 16 0.00 0.00
5:56 am 05:56 Clear 69 20.6 67 19.4 93 93 NNE 5 7 29.97 1015 10 16 0.00 0.00
6:56 am 06:56 Partly Cloudy 69 20.6 68 20 96 96 N 3 6 30.00 1016 10 16 0.00 0.00
7:30 am 07:30 Mostly Cloudy 70 21 68 20 94 94 N 5 7 29.99 1016 10 16 0.00 0.00
7:56 am 07:56 Cloudy 70 21.1 69 20.6 97 97 NNW 5 7 30.02 1017 10 16 0.00 0.00
8:56 am 08:56 Mostly Cloudy 73 22.8 70 21.1 90 90 NE 6 9 30.02 1017 10 16 0.00 0.00
9:05 am 09:05 Partly Cloudy 73 23 72 22 94 94 NE 8 13 29.97 1015 10 16 0.00 0.00
9:34 am 09:34 Mostly Sunny 75 24 72 22 89 89 ENE 12 19 29.94 1014 10 16 0.00 0.00
9:56 am 09:56 Mostly Cloudy 77 25 72 22.2 85 85 E 9 15 29.98 1015 10 16 0.00 0.00
10:56 am 10:56 Mostly Cloudy 78 25.6 72 22.2 82 82 ESE 12 19 29.96 1015 10 16 0.00 0.00
11:21 am 11:21 Mostly Sunny 79 26 73 23 84 84 SE 9 15 29.91 1013 10 16 0.00 0.00
11:56 am 11:56 Sunny 79 26.1 72 22.2 79 79 SE 9 15 29.98 1015 10 16 0.00 0.00
12:56 pm 12:56 Sunny 81 27.2 74 23.3 79 79 SSE 10 17 29.97 1015 10 16 0.00 0.00
1:56 pm 13:56 Sunny 85 29.4 75 23.9 72 72 SSE 10 17 29.96 1014 10 16 0.00 0.00
2:56 pm 14:56 Sunny 88 31.1 75 23.9 66 66 SSE 8 13 29.93 1014 10 16 0.00 0.00
3:56 pm 15:56 Sunny 89 31.7 75 23.9 63 63 E 8 13 29.91 1013 10 16 0.00 0.00
4:56 pm 16:56 Sunny 88 31.1 75 23.9 66 66 E 9 15 29.88 1012 10 16 0.00 0.00
5:56 pm 17:56 Sunny 88 31.1 75 23.9 66 66 E 9 15 29.86 1011 10 16 0.00 0.00
6:56 pm 18:56 Sunny 85 29.4 75 23.9 72 72 E 12 19 29.84 1010 10 16 0.00 0.00
7:56 pm 19:56 Mostly Cloudy 82 27.8 75 23.9 79 79 E 9 15 29.83 1010 10 16 0.00 0.00
8:56 pm 20:56 Mostly Clear 78 25.6 74 23.3 87 87 E 8 13 29.83 1010 10 16 0.00 0.00
9:52 pm 21:52 Mostly Cloudy with Nearby Thunderstorms 84 29 66 19 55 55 W 18 30 29.81 1009 10 16 0.00 0.00
9:56 pm 21:56 Mostly Cloudy with Nearby Thunderstorms 84 28.9 65 18.3 53 53 W 16 26 29.88 1012 10 16 0.00 0.00
10:03 pm 22:03 Mostly Cloudy with Nearby Thunderstorms 82 28 64 18 55 55 WSW 24 39 29.82 1010 7 11 0.00 0.00
10:38 pm 22:38 Cloudy with Light Rain 77 25 63 17 61 61 SW 16 26 29.84 1010 10 16 0.09 2.29
10:56 pm 22:56 Cloudy with Light Rain 75 23.9 63 17.2 66 66 SSW 21 33 29.88 1012 10 16 0.09 2.29
11:05 pm 23:05 Cloudy with Nearby Thunderstorms 72 22 63 17 73 73 S 25 41 29.84 1011 10 16 0.00 0.00
11:20 pm 23:20 Cloudy with Light Rain 75 24 61 16 61 61 S 29 46 29.81 1009 10 16 0.00 0.00
11:56 pm 23:56 Cloudy with Light Rain 75 23.9 63 17.2 66 66 S 5 7 29.85 1011 10 16 0.00 0.00

Powered by AerisWeather